Regional Weather Roundup
Issued by NWS Lake Charles, LA

Home | Current Version | Previous Version | Text Only | Print | Product List | Glossary On
Versions: 1 2 3 4 5 6 7 8 9 10 11 12 13 14 15 16 17 18 19 20 21 22 23 24 25 26 27 28 29 30 31 32 33 34 35 36 37 38 39 40 41 42 43 44 45 46 47 48 49 50
299
ASUS44 KLCH 031010
RWRLCH
REGIONAL WEATHER ROUNDUP
NATIONAL WEATHER SERVICE LAKE CHARLES LA
500 AM CDT TUE MAY 03 2016

Note: "fair" indicates few or no clouds below 12,000 feet with no
significant weather and/or obstructions to visibility.


ACROSS SOUTHEAST TEXAS

CITY           SKY/WX    TMP DP  RH WIND       PRES   REMARKS
BEAUMONT       CLOUDY    64  58  80 N8        29.98F
BEAUMONT CITY  CLOUDY    63  56  78 N8        30.00S
ORANGE         CLOUDY    62  59  90 N7        30.00S
JASPER         PTCLDY    58  54  85 N6        30.04S
$$

ACROSS CENTRAL LOUISIANA

CITY           SKY/WX    TMP DP  RH WIND       PRES   REMARKS
LEESVILLE      CLOUDY    61  58  89 VRB7      29.99S
FULLERTON      CLOUDY    61  56  83 CALM      29.97S
ALEXANDRIA INT PTCLDY    60  58  92 N8        29.97S
ESLER FIELD    MOCLDY    62  58  86 NW5       29.98S
DERIDDER       CLOUDY    61  60  96 N6        30.01S
OAKDALE        CLOUDY    64  61  89 N5        29.98S
OPELOUSAS      CLOUDY   N/A N/A N/A N10       29.97R
$$

ACROSS SOUTHWEST AND SOUTH CENTRAL LOUISIANA

CITY           SKY/WX    TMP DP  RH WIND       PRES   REMARKS
SULPHUR        CLOUDY    64  62  90 N8        29.99S
LAKE CHARLES   CLOUDY    64  59  83 N8        29.97F
CHENNAULT INT  CLOUDY    64  60  86 N5        29.98S
CAMERON PHI    NOT AVBL
DEQUINCY       CLOUDY    61  61 100 N5        30.00R
JENNINGS       CLOUDY    64  61  88 N9        29.97S
LAFAYETTE      CLOUDY    65  61  87 N10       29.95F
NEW IBERIA     CLOUDY    65  62  90 N14       29.95S
ABBEVILLE      CLOUDY    64  63  97 N10       29.95S
PATTERSON      NOT AVBL
SALT POINT       N/A     68  66  93 N9G16     29.91S
$$

SELECTED SITES ACROSS THE REGION

CITY           SKY/WX    TMP DP  RH WIND       PRES   REMARKS
HOUSTON BUSH   PTCLDY    57  53  86 N7        30.03S
HOUSTON HOBBY  MOCLDY    62  54  74 N9G20     30.02R
GALVESTON      CLOUDY    65  60  84 N18       29.99F
COLLEGE STAT   MOCLDY    55  52  89 N6        30.06F
CONROE         PTCLDY    56  52  86 N6        30.04S
HUNTSVILLE     CLOUDY    55  51  86 N5        30.05F
LUFKIN         PTCLDY    53  50  89 NW3       30.04S
SHREVEPORT     CLEAR     54  50  86 NW6       30.03S
MONROE         CLEAR     59  58  96 N5        30.00S
NATCHEZ MS     CLOUDY    63  57  82 N3        29.97F
BATON ROUGE    CLOUDY    65  62  90 NW7       29.94S
N.O. INTL ARPT CLOUDY    71  68  90 N9        29.91S
SLIDELL        CLOUDY    67  67 100 N8        29.91R FOG
$$

MARINE REPORTS

STATION/POSITION TIME  SKY/WX   TEMP    WIND        PRES    VSBY
                                AIR SEA DIR/SP/G
                 (UTC)          (F)     (DEG/KT/KT) (MB)    (MI)
BUOY 30 S HIGH I 0950            66 74  350/ 17/ 21 1014.4S
WVE H/P(F/S)=  3/ 4

SEA RIM ST PARK  1000            63     360/ 13/ 16 1015.8R
PORT ARTHUR      0900               75   10/ 13/ 15 1015.5S
SABINE PASS N    0900            65 76  360/ 13/ 18 1016.6R
TEXAS POINT      NOT AVBL
CALCASIEU PASS   0900            66 76   40/ 16/ 20 1013.8S
LK CHARLES BEACH 0900            65 73              1015.5F
MARSH ISLAND     0900            69     130/ 13/ 16   N/A
FRESH WATER LOCK 0900            67 74  320/ 14/ 18 1014.0F
AMERADA PASS     0900            69 72  330/  4/  8 1012.7F
$$




USA.gov is the U.S. government's official web portal to all federal, state and local government web resources and services.